Location: Forli
(44.2227°N, 12.0407°E)
Time: 13:49:54
(UTC+01:00)

ARIANE 6 FM1 Upper Stage - Visible Passes

Search period start: 17 February 2026 00:00
Search period end: 27 February 2026 00:00
Orbit: 522 x 608 km, 62.0° (Epoch: 17 February)

Date Brightness Start Highest point End Pass type
(mag) Time Alt. Az. Time Alt. Az. Time Alt. Az.
17 Feb 3.0 18:40:55 10° NNW 18:44:40 40° NE 18:47:30 16° ESE visible
17 Feb 4.7 20:20:20 10° WNW 20:23:28 23° WSW 20:23:33 23° WSW visible
18 Feb 2.6 18:40:47 10° NNW 18:44:41 58° NE 18:48:32 10° SE visible
18 Feb 5.2 20:20:53 10° WNW 20:23:16 15° WSW 20:24:37 13° SW visible
19 Feb 2.5 18:40:41 10° NW 18:44:39 85° NE 18:48:38 10° SE visible
19 Feb 5.8 20:22:39 10° WSW 20:23:01 10° WSW 20:23:24 10° WSW visible
20 Feb 3.0 18:40:39 10° NW 18:44:34 65° SW 18:48:30 10° SSE visible
21 Feb 3.8 18:40:42 10° NW 18:44:27 42° WSW 18:48:13 10° SSE visible
22 Feb 4.7 18:40:51 10° WNW 18:44:17 29° WSW 18:47:43 10° S visible
23 Feb 5.5 18:41:11 10° WNW 18:44:04 20° WSW 18:46:59 10° SSW visible
24 Feb 5.8 18:41:53 10° W 18:43:49 13° WSW 18:45:46 10° SW visible
